EW6799 Weather Reports


time (UTC)temp
C
wind
direction
speed
KPH
gust
KPH
rain 1hr
cm
rain 24hr
cm
rain mn
cm
humidity
%
barometer
mb
20220629005903 22 107 0.0 0.0 0.00 0.00 0.00 81 1015.8
20220629005403 22 107 0.0 0.0 0.00 0.00 0.00 81 1015.9
20220629004903 22 107 0.0 0.0 0.00 0.00 0.00 82 1016.1
20220629004403 22 57 0.0 0.0 0.00 0.00 0.00 82 1016.1
20220629003403 22 52 0.0 0.0 0.00 0.00 0.00 83 1016.2
20220629002903 22 52 0.0 0.0 0.00 0.00 0.00 83 1016.2
20220629001903 22 51 0.0 0.0 0.00 0.00 0.00 83 1016.3
20220629001403 23 51 0.0 0.0 0.00 0.00 0.00 83 1016.3
20220629000904 23 51 0.0 0.0 0.00 0.00 0.00 83 1016.4
20220629000403 23 51 0.0 0.0 0.00 0.00 0.00 83 1016.5
20220628235903 23 51 0.0 0.0 0.00 0.00 0.00 83 1016.4
20220628235404 23 340 0.0 0.0 0.00 0.00 0.00 82 1016.5
20220628234404 23 342 0.0 0.0 0.00 0.00 0.00 82 1016.5
20220628233903 23 338 0.0 0.0 0.00 0.00 0.00 81 1016.5
20220628233403 23 295 0.0 0.0 0.00 0.00 0.00 81 1016.5
20220628232903 23 318 0.0 0.0 0.00 0.00 0.00 80 1016.5
20220628232403 23 331 0.0 0.0 0.00 0.00 0.00 80 1016.5
20220628230903 23 313 0.0 0.0 0.00 0.00 0.00 78 1016.4
20220628230403 23 300 0.0 0.0 0.00 0.00 0.00 78 1016.5
20220628225904 23 224 0.0 0.0 0.00 0.00 0.00 78 1016.5
20220628225403 23 231 0.0 0.0 0.00 0.00 0.00 78 1016.6
20220628224904 23 247 0.0 0.0 0.00 0.00 0.00 77 1016.6
20220628224403 23 256 1.6 8.0 0.00 0.00 0.00 77 1016.7
20220628223903 24 218 0.0 12.9 0.00 0.00 0.00 76 1016.7
20220628223403 24 252 3.2 12.9 0.00 0.00 0.00 75 1016.6
20220628222903 24 178 3.2 11.3 0.00 0.00 0.00 74 1016.7
20220628222403 24 248 0.0 0.0 0.00 0.00 0.00 73 1016.6
20220628221404 24 236 1.6 4.8 0.00 0.00 0.00 71 1016.6
20220628220904 24 268 0.0 0.0 0.00 0.00 0.00 70 1016.6
20220628220403 24 245 0.0 0.0 0.00 0.00 0.00 70 1016.5
20220628215404 24 258 0.0 0.0 0.00 0.00 0.00 69 1016.4
20220628214903 24 254 0.0 0.0 0.00 0.00 0.00 69 1016.3
20220628214403 25 253 0.0 0.0 0.00 0.00 0.00 68 1016.4
20220628213903 25 253 0.0 0.0 0.00 0.00 0.00 68 1016.3
20220628213404 25 253 0.0 0.0 0.00 0.00 0.00 68 1016.3
20220628212904 25 253 0.0 0.0 0.00 0.00 0.00 68 1016.3
20220628212403 25 253 0.0 0.0 0.00 0.00 0.00 68 1016.2
20220628211904 25 253 0.0 0.0 0.00 0.00 0.00 68 1016.2
20220628210904 25 229 0.0 0.0 0.00 0.00 0.00 67 1016.1
20220628210404 25 229 0.0 0.0 0.00 0.00 0.00 67 1016.2
20220628205904 25 229 0.0 0.0 0.00 0.00 0.00 67 1016.1
20220628204904 25 240 0.0 0.0 0.00 0.00 0.00 66 1015.9
20220628204404 25 240 0.0 0.0 0.00 0.00 0.00 65 1015.8
20220628203404 25 220 0.0 8.0 0.00 0.00 0.00 64 1015.7
20220628202903 26 252 6.4 9.7 0.00 0.00 0.00 62 1015.5
20220628202403 26 254 3.2 11.3 0.00 0.00 0.00 60 1015.4
20220628201904 26 144 0.0 4.8 0.00 0.00 0.00 58 1015.1
20220628201404 26 100 1.6 9.7 0.00 0.00 0.00 59 1014.9
20220628200904 26 31 1.6 4.8 0.00 0.00 0.00 59 1014.7
20220628195404 26 47 1.6 14.5 0.00 0.00 0.00 59 1014.3
20220628193404 26 81 3.2 11.3 0.00 0.00 0.00 57 1014.0
20220628192903 26 54 4.8 16.1 0.00 0.00 0.00 57 1014.0
20220628191903 27 49 8.0 16.1 0.00 0.00 0.00 56 1013.8
20220628191403 27 84 1.6 12.9 0.00 0.00 0.00 55 1013.7
20220628190903 27 61 11.3 20.9 0.00 0.00 0.00 55 1013.7
20220628185903 27 80 8.0 19.3 0.00 0.00 0.00 54 1013.6
20220628185404 27 62 4.8 20.9 0.00 0.00 0.00 53 1013.6
20220628184903 28 46 12.9 19.3 0.00 0.00 0.00 52 1013.5
20220628183904 28 62 9.7 20.9 0.00 0.00 0.00 52 1013.4
20220628183404 28 51 8.0 16.1 0.00 0.00 0.00 52 1013.3
20220628182904 28 347 1.6 16.1 0.00 0.00 0.00 53 1013.3
20220628182403 28 37 12.9 20.9 0.00 0.00 0.00 52 1013.3
20220628181404 28 44 11.3 22.5 0.00 0.00 0.00 50 1013.1
20220628180903 29 25 1.6 14.5 0.00 0.00 0.00 50 1013.1
20220628180404 29 42 4.8 16.1 0.00 0.00 0.00 49 1013.1
20220628175903 29 67 3.2 20.9 0.00 0.00 0.00 48 1013.0
20220628175404 29 39 11.3 24.1 0.00 0.00 0.00 49 1013.0
20220628174903 28 27 4.8 14.5 0.00 0.00 0.00 50 1013.0
20220628174403 28 356 3.2 12.9 0.00 0.00 0.00 50 1013.0
20220628173903 28 46 8.0 14.5 0.00 0.00 0.00 51 1013.0
20220628173404 28 9 4.8 20.9 0.00 0.00 0.00 51 1012.9
20220628172904 28 355 11.3 19.3 0.00 0.00 0.00 51 1012.9
20220628172403 28 14 6.4 22.5 0.00 0.00 0.00 51 1012.8
20220628171903 29 1 9.7 20.9 0.00 0.00 0.00 49 1012.8
20220628170903 29 21 8.0 25.7 0.00 0.00 0.00 48 1012.7
20220628170404 28 47 8.0 24.1 0.00 0.00 0.00 49 1012.7
20220628165904 28 6 8.0 20.9 0.00 0.00 0.00 50 1012.7
20220628165404 28 2 8.0 20.9 0.00 0.00 0.00 50 1012.8
20220628164904 28 24 8.0 24.1 0.00 0.00 0.00 51 1012.7
20220628164403 28 32 12.9 25.7 0.00 0.00 0.00 52 1012.8
20220628163903 28 34 3.2 20.9 0.00 0.00 0.00 53 1012.9
20220628163403 28 9 11.3 32.2 0.00 0.00 0.00 55 1013.0
20220628162904 28 26 12.9 22.5 0.00 0.00 0.00 56 1012.9
20220628162404 28 30 16.1 24.1 0.00 0.00 0.00 54 1013.0
20220628161903 27 58 11.3 22.5 0.00 0.00 0.00 55 1013.0
20220628160904 26 347 12.9 24.1 0.00 0.00 0.00 62 1013.0
20220628160403 26 357 16.1 25.7 0.00 0.00 0.00 64 1013.1
20220628155904 26 356 14.5 32.2 0.00 0.00 0.00 65 1013.2
20220628155404 27 5 14.5 24.1 0.00 0.00 0.00 63 1013.3
20220628154904 26 28 9.7 32.2 0.00 0.00 0.00 66 1013.4
20220628153904 26 0 14.5 38.6 0.00 0.00 0.00 65 1013.4
20220628152904 26 16 16.1 32.2 0.00 0.00 0.00 65 1013.4
20220628152404 26 353 22.5 35.4 0.00 0.00 0.00 67 1013.5
20220628151403 26 31 20.9 35.4 0.00 0.00 0.00 62 1013.7
20220628150904 26 358 16.1 29.0 0.00 0.00 0.00 64 1013.7
20220628150404 26 29 16.1 32.2 0.00 0.00 0.00 63 1013.7
20220628145403 26 15 14.5 27.4 0.00 0.00 0.00 63 1013.8
20220628144903 26 350 14.5 32.2 0.00 0.00 0.00 63 1013.8
20220628144404 27 8 14.5 32.2 0.00 0.00 0.00 61 1014.0
20220628143904 27 20 14.5 29.0 0.00 0.00 0.00 62 1014.0
20220628143404 26 9 11.3 24.1 0.00 0.00 0.00 62 1014.1
20220628141904 26 355 16.1 29.0 0.00 0.00 0.00 64 1014.4
20220628141404 26 4 20.9 35.4 0.00 0.00 0.00 62 1014.5
20220628140903 26 6 19.3 29.0 0.00 0.00 0.00 62 1014.5
20220628140403 26 1 14.5 29.0 0.00 0.00 0.00 65 1014.6
20220628135903 25 2 19.3 32.2 0.00 0.00 0.00 67 1014.7
20220628135402 25 356 22.5 38.6 0.00 0.00 0.00 66 1014.8
20220628134402 25 350 24.1 37.0 0.00 0.00 0.00 68 1014.9
20220628133902 25 10 20.9 38.6 0.00 0.00 0.00 67 1014.9
20220628133402 25 2 20.9 32.2 0.00 0.00 0.00 67 1015.0
20220628132903 25 9 20.9 33.8 0.00 0.00 0.00 67 1015.2
20220628132403 25 0 20.9 37.0 0.00 0.00 0.00 67 1015.2
20220628131402 25 11 19.3 33.8 0.00 0.00 0.00 67 1015.3
20220628130902 25 358 22.5 37.0 0.00 0.00 0.00 66 1015.4
20220628130402 25 2 19.3 33.8 0.00 0.00 0.00 68 1015.5
20220628125903 25 0 22.5 38.6 0.00 0.00 0.00 68 1015.5
20220628125403 25 352 20.9 27.4 0.00 0.00 0.00 69 1015.5
20220628124902 25 8 17.7 33.8 0.00 0.00 0.00 68 1015.6
20220628123402 25 17 16.1 32.2 0.00 0.00 0.00 68 1015.9
20220628122903 25 3 19.3 32.2 0.00 0.00 0.00 68 1015.8
20220628122403 25 356 12.9 29.0 0.00 0.00 0.00 68 1015.9
20220628121903 25 27 14.5 24.1 0.00 0.00 0.00 67 1015.9
20220628121403 25 9 16.1 27.4 0.00 0.00 0.00 67 1016.1
20220628120903 25 0 12.9 24.1 0.00 0.00 0.00 66 1016.1
20220628115903 25 20 14.5 24.1 0.00 0.00 0.00 67 1016.2
20220628115403 25 7 9.7 20.9 0.00 0.00 0.00 67 1016.3
20220628114903 25 18 9.7 19.3 0.00 0.00 0.00 67 1016.4
20220628114403 25 14 4.8 19.3 0.00 0.00 0.00 67 1016.4
20220628113402 25 9 9.7 19.3 0.00 0.00 0.00 67 1016.4
20220628112903 25 28 4.8 19.3 0.00 0.00 0.00 69 1016.5
20220628112403 25 334 11.3 25.7 0.00 0.00 0.00 68 1016.5
20220628111902 25 21 17.7 24.1 0.00 0.00 0.00 66 1016.5
20220628110902 25 353 8.0 19.3 0.00 0.00 0.00 65 1016.5
20220628105403 25 20 9.7 20.9 0.00 0.00 0.00 65 1016.8
20220628104903 25 356 9.7 19.3 0.00 0.00 0.00 64 1016.7
20220628104403 25 348 11.3 22.5 0.00 0.00 0.00 65 1016.8
20220628103403 25 19 14.5 22.5 0.00 0.00 0.00 65 1016.8
20220628102403 25 26 12.9 27.4 0.00 0.00 0.00 65 1016.8
20220628101402 25 1 9.7 22.5 0.00 0.00 0.00 66 1016.9
20220628100903 25 22 16.1 24.1 0.00 0.00 0.00 66 1016.8
20220628100402 25 18 14.5 22.5 0.00 0.00 0.00 65 1016.8
20220628095903 25 11 11.3 19.3 0.00 0.00 0.00 63 1016.8
20220628095403 25 26 6.4 16.1 0.00 0.00 0.00 65 1016.8
20220628094903 25 352 14.5 20.9 0.00 0.00 0.00 66 1016.8
20220628093903 25 352 11.3 20.9 0.00 0.00 0.00 65 1016.9
20220628093403 24 340 16.1 22.5 0.00 0.00 0.00 64 1016.9
20220628092902 24 345 9.7 20.9 0.00 0.00 0.00 64 1016.8
20220628092403 24 342 9.7 24.1 0.00 0.00 0.00 64 1016.8
20220628091903 24 352 14.5 24.1 0.00 0.00 0.00 64 1016.7
20220628091403 25 353 17.7 24.1 0.00 0.00 0.00 63 1016.7
20220628090903 25 354 14.5 22.5 0.00 0.00 0.00 62 1016.6
20220628090402 26 347 11.3 19.3 0.00 0.00 0.00 59 1016.7
20220628085403 26 79 3.2 11.3 0.00 0.00 0.00 52 1016.6
20220628084403 26 109 0.0 12.9 0.00 0.00 0.00 54 1016.6
20220628083903 25 141 1.6 8.0 0.00 0.00 0.00 57 1016.7
20220628083403 25 114 3.2 12.9 0.00 0.00 0.00 55 1016.6
20220628082902 25 105 3.2 11.3 0.00 0.00 0.00 55 1016.6
20220628082403 25 133 0.0 8.0 0.00 0.00 0.00 59 1016.7
20220628081903 25 122 3.2 9.7 0.00 0.00 0.00 58 1016.7
20220628081403 25 143 6.4 11.3 0.00 0.00 0.00 59 1016.6
20220628080903 25 174 3.2 11.3 0.00 0.00 0.00 60 1016.6
20220628080403 25 133 3.2 14.5 0.00 0.00 0.00 60 1016.7
20220628075902 24 138 3.2 9.7 0.00 0.00 0.00 62 1016.8
20220628074903 24 146 6.4 9.7 0.00 0.00 0.00 62 1017.0
20220628074403 24 131 1.6 12.9 0.00 0.00 0.00 63 1017.0
20220628073903 23 119 4.8 19.3 0.00 0.00 0.00 63 1017.0
20220628073403 23 109 3.2 14.5 0.00 0.00 0.00 64 1016.9
20220628072903 24 119 9.7 16.1 0.00 0.00 0.00 63 1016.9
20220628072403 23 135 0.0 0.0 0.00 0.00 0.00 64 1017.0
20220628071403 23 129 3.2 11.3 0.00 0.00 0.00 66 1017.0
20220628070904 23 123 4.8 12.9 0.00 0.00 0.00 67 1016.9
20220628065904 22 107 8.0 19.3 0.00 0.00 0.00 67 1016.9
20220628064403 22 117 8.0 19.3 0.00 0.00 0.00 69 1016.8
20220628063403 22 137 9.7 19.3 0.00 0.00 0.00 70 1016.8
20220628061903 22 121 11.3 20.9 0.00 0.00 0.00 70 1016.9
20220628061403 22 107 9.7 20.9 0.00 0.00 0.00 71 1017.0
20220628060904 21 131 9.7 22.5 0.00 0.00 0.00 71 1016.8
20220628060403 21 120 11.3 22.5 0.00 0.00 0.00 71 1016.8
20220628055903 21 111 9.7 22.5 0.00 0.00 0.00 71 1016.6
20220628055404 21 124 8.0 19.3 0.00 0.00 0.00 71 1016.6
20220628053903 21 115 12.9 20.9 0.00 0.00 0.00 71 1016.8
20220628052403 21 115 8.0 14.5 0.00 0.00 0.00 71 1016.7
20220628051903 21 117 3.2 19.3 0.00 0.00 0.00 71 1016.6
20220628051404 21 119 3.2 14.5 0.00 0.00 0.00 71 1016.7
20220628050403 21 117 4.8 11.3 0.00 0.00 0.00 71 1016.7
20220628045903 21 116 8.0 16.1 0.00 0.00 0.00 71 1016.8
20220628045403 21 120 1.6 16.1 0.00 0.00 0.00 70 1016.8
20220628044903 21 123 0.0 0.0 0.00 0.00 0.00 70 1016.6
20220628043903 21 129 0.0 0.0 0.00 0.00 0.00 71 1016.5
20220628043403 21 132 0.0 0.0 0.00 0.00 0.00 71 1016.5
20220628042903 21 150 0.0 9.7 0.00 0.00 0.00 70 1016.5
20220628042404 21 132 4.8 12.9 0.00 0.00 0.00 70 1016.5
20220628041403 21 119 8.0 14.5 0.00 0.00 0.00 69 1016.3
20220628040403 21 124 0.0 0.0 0.00 0.00 0.00 69 1016.2
20220628035903 21 124 0.0 0.0 0.00 0.00 0.00 69 1016.1